Weather History for Rutherfordton, NC

Change the Weather History Date:

Friday, May 24, 2013

  Actual Average (KAVL) Record (KAVL)
Temperature  
Mean Temperature 62 °F 65 °F  
Max Temperature 71 °F 77 °F 90 °F (1939)
Min Temperature 53 °F 54 °F 36 °F (1931)
Degree Days  
Heating Degree Days 3 2  
Month to date heating degree days 97  
Since 1 July heating degree days 4169  
Cooling Degree Days 0 2  
Month to date cooling degree days 32  
Year to date cooling degree days 40  
Growing Degree Days 12 (Base 50)    
Moisture  
Dew Point 44 °F    
Average Humidity 55    
Maximum Humidity 97    
Minimum Humidity 24    
Precipitation  
Precipitation 0.00 in 0.11 in 2.28 in (1959)
Month to date precipitation 2.78  
Year to date precipitation 17.37  
Snow  
Snow 0.00 in 0.00 in 0.00 in ()
Month to date snowfall 0.0  
Since 1 July snowfall 9.9  
Snow Depth -    
Sea Level Pressure  
Sea Level Pressure 30.07 in    
Wind  
Wind Speed 7 mph (North)    
Max Wind Speed 18 mph    
Max Gust Speed 30 mph    
Visibility 10 miles    
Events      
T = Trace of Precipitation, MM = Missing Value Source: NWS Daily Summary

Daily Weather History Graph

Daily Weather History Graph

Search for Another Location

Airport:

Trip Planner

Search our weather history database for the weather conditions in past years. The results will help you decide how hot, cold, wet, or windy it might be!

Date:

Astronomy

May. 24, 2013 Rise Set
Actual Time 6:17 AM EDT 8:32 PM EDT
Civil Twilight 5:48 AM EDT 9:01 PM EDT
Nautical Twilight 5:12 AM EDT 9:36 PM EDT
Astronomical Twilight 4:34 AM EDT 10:15 PM EDT
Moon 8:13 PM EDT (5/24) 5:46 AM EDT (5/24)
Length of Visible Light 15h 13m
Length of Day
14h 15m
Full, 100% of the Moon is Illuminated
May 24
Full
May 25
Full
May 31
Last Quarter
Jun 8
New
Jun 16
First Quarter

Hourly Weather History & Observations

Time (EDT) Temp. Dew Point Humidity Pressure Visibility Wind Dir Wind Speed Gust Speed Precip Events Conditions
12:15 AM 66.6 °F 58.3 °F 75% 29.94 in 10.0 mi WNW 10.4 mph - N/A   Mostly Cloudy
12:35 AM 64.6 °F 57.9 °F 79% 29.94 in 10.0 mi WNW 6.9 mph - N/A   Scattered Clouds
12:55 AM 64.8 °F 54.9 °F 70% 29.94 in 10.0 mi WNW 5.8 mph - N/A   Clear
1:15 AM 64.0 °F 53.4 °F 68% 29.94 in 10.0 mi NNW 4.6 mph - N/A   Clear
1:35 AM 63.3 °F 56.1 °F 77% 29.93 in 10.0 mi ENE 3.5 mph - N/A   Clear
1:55 AM 63.3 °F 56.5 °F 78% 29.93 in 10.0 mi Calm Calm - N/A   Clear
2:15 AM 59.9 °F 55.6 °F 86% 29.93 in 10.0 mi North 4.6 mph - N/A   Clear
2:35 AM 60.3 °F 55.9 °F 86% 29.93 in 10.0 mi Calm Calm - N/A   Clear
2:55 AM 61.0 °F 55.6 °F 82% 29.94 in 10.0 mi WNW 5.8 mph - N/A   Clear
3:15 AM 59.7 °F 55.4 °F 86% 29.93 in 10.0 mi Calm Calm - N/A   Clear
3:35 AM 57.6 °F 55.4 °F 92% 29.93 in 10.0 mi Calm Calm - N/A   Clear
3:55 AM 57.7 °F 54.7 °F 90% 29.93 in 10.0 mi Calm Calm - N/A   Clear
4:15 AM 55.8 °F 54.9 °F 97% 29.93 in 10.0 mi Calm Calm - N/A   Clear
4:35 AM 55.4 °F 54.5 °F 97% 29.93 in 10.0 mi Calm Calm - N/A   Clear
4:55 AM 54.9 °F 54.1 °F 97% 29.93 in 10.0 mi Calm Calm - N/A   Clear
5:15 AM 55.8 °F 54.0 °F 94% 29.94 in 10.0 mi Calm Calm - N/A   Clear
5:35 AM 54.0 °F 53.2 °F 97% 29.94 in 10.0 mi Calm Calm - N/A   Clear
5:55 AM 54.5 °F 53.4 °F 96% 29.94 in 10.0 mi Calm Calm - N/A   Clear
6:15 AM 54.7 °F 53.6 °F 96% 29.95 in 10.0 mi Calm Calm - N/A   Clear
6:35 AM 53.6 °F 52.9 °F 97% 29.95 in 7.0 mi Calm Calm - N/A   Clear
6:55 AM 54.7 °F 52.7 °F 93% 29.97 in 10.0 mi Calm Calm - N/A   Clear
7:15 AM 55.4 °F 53.4 °F 93% 29.97 in 10.0 mi Calm Calm - N/A   Clear
7:35 AM 57.6 °F 54.0 °F 88% 29.98 in 10.0 mi Calm Calm - N/A   Clear
7:55 AM 59.7 °F 54.0 °F 81% 29.99 in 10.0 mi Calm Calm - N/A   Clear
8:15 AM 61.0 °F 54.7 °F 80% 30.00 in 10.0 mi Calm Calm - N/A   Clear
8:35 AM 64.0 °F 53.6 °F 69% 30.00 in 10.0 mi West 3.5 mph - N/A   Clear
8:55 AM 64.9 °F 54.5 °F 69% 30.01 in 10.0 mi NW 11.5 mph 16.1 mph N/A   Clear
9:15 AM 66.6 °F 52.0 °F 59% 30.03 in 10.0 mi North 10.4 mph 18.4 mph N/A   Scattered Clouds
9:35 AM 67.5 °F 50.4 °F 54% 30.04 in 10.0 mi NNW 12.7 mph 21.9 mph N/A   Clear
9:55 AM 67.8 °F 48.9 °F 51% 30.06 in 10.0 mi North 9.2 mph 16.1 mph N/A   Clear
10:15 AM 66.4 °F 47.1 °F 50% 30.07 in 10.0 mi NNE 13.8 mph 20.7 mph N/A   Scattered Clouds
10:35 AM 66.9 °F 47.8 °F 50% 30.08 in 10.0 mi NNE 15.0 mph 21.9 mph N/A   Scattered Clouds
10:55 AM 66.7 °F 45.3 °F 46% 30.09 in 10.0 mi NNE 13.8 mph 26.5 mph N/A   Scattered Clouds
11:15 AM 63.9 °F 43.5 °F 48% 30.11 in 10.0 mi NNE 15.0 mph 29.9 mph N/A   Mostly Cloudy
11:35 AM 65.3 °F 43.2 °F 45% 30.12 in 10.0 mi North 18.4 mph 28.8 mph N/A   Scattered Clouds
11:55 AM 65.7 °F 43.5 °F 45% 30.13 in 10.0 mi North 15.0 mph 26.5 mph N/A   Clear
12:15 PM 66.4 °F 43.5 °F 44% 30.13 in 10.0 mi North 12.7 mph 21.9 mph N/A   Clear
12:35 PM 65.8 °F 42.3 °F 42% 30.13 in 10.0 mi North 17.3 mph 28.8 mph N/A   Clear
12:55 PM 66.6 °F 42.4 °F 42% 30.13 in 10.0 mi North 13.8 mph 23.0 mph N/A   Clear
1:15 PM 67.1 °F 40.8 °F 38% 30.13 in 10.0 mi North 16.1 mph 25.3 mph N/A   Clear
1:35 PM 68.0 °F 40.1 °F 36% 30.13 in 10.0 mi North 18.4 mph 29.9 mph N/A   Clear
1:55 PM 68.5 °F 38.8 °F 34% 30.13 in 10.0 mi North 10.4 mph 23.0 mph N/A   Clear
2:15 PM 69.8 °F 39.2 °F 33% 30.13 in 10.0 mi North 18.4 mph 24.2 mph N/A   Clear
2:35 PM 69.6 °F 36.7 °F 30% 30.13 in 10.0 mi North 13.8 mph 23.0 mph N/A   Clear
2:55 PM 70.3 °F 34.5 °F 27% 30.12 in 10.0 mi North 11.5 mph 24.2 mph N/A   Clear
3:15 PM 70.2 °F 33.4 °F 26% 30.12 in 10.0 mi North 17.3 mph 24.2 mph N/A   Clear
3:35 PM 70.9 °F 33.6 °F 25% 30.13 in 10.0 mi North 13.8 mph 26.5 mph N/A   Clear
3:55 PM 70.9 °F 31.8 °F 24% 30.13 in 10.0 mi North 16.1 mph 24.2 mph N/A   Clear
4:15 PM 71.6 °F 33.8 °F 25% 30.13 in 10.0 mi North 12.7 mph 19.6 mph N/A   Clear
4:35 PM 70.5 °F 32.4 °F 24% 30.13 in 10.0 mi North 13.8 mph 26.5 mph N/A   Clear
4:55 PM 70.5 °F 32.5 °F 25% 30.13 in 10.0 mi North 16.1 mph 25.3 mph N/A   Clear
5:15 PM 70.5 °F 33.6 °F 26% 30.13 in 10.0 mi North 12.7 mph 23.0 mph N/A   Clear
5:35 PM 70.7 °F 35.6 °F 28% 30.13 in 10.0 mi North 11.5 mph 17.3 mph N/A   Clear
5:55 PM 70.2 °F 35.6 °F 28% 30.14 in 10.0 mi NNW 9.2 mph 19.6 mph N/A   Clear
6:15 PM 70.0 °F 35.4 °F 28% 30.14 in 10.0 mi North 10.4 mph 20.7 mph N/A   Clear
6:35 PM 69.6 °F 34.9 °F 28% 30.14 in 10.0 mi North 11.5 mph 17.3 mph N/A   Clear
6:55 PM 68.9 °F 34.7 °F 28% 30.14 in 10.0 mi North 8.1 mph 16.1 mph N/A   Clear
7:15 PM 68.4 °F 36.0 °F 30% 30.15 in 10.0 mi North 9.2 mph - N/A   Clear
7:35 PM 67.3 °F 34.3 °F 30% 30.16 in 10.0 mi North 4.6 mph - N/A   Clear
7:55 PM 66.2 °F 34.0 °F 30% 30.16 in 10.0 mi North 10.4 mph - N/A   Clear
8:15 PM 64.9 °F 34.9 °F 33% 30.17 in 10.0 mi NNE 9.2 mph - N/A   Clear
8:35 PM 63.7 °F 35.4 °F 35% 30.17 in 10.0 mi NNE 8.1 mph - N/A   Clear
8:55 PM 62.2 °F 36.1 °F 38% 30.18 in 10.0 mi North 6.9 mph - N/A   Clear
9:15 PM 61.9 °F 36.0 °F 38% 30.19 in 10.0 mi North 6.9 mph - N/A   Clear
9:35 PM 60.4 °F 36.9 °F 42% 30.19 in 10.0 mi Calm Calm - N/A   Clear
9:55 PM 56.8 °F 38.8 °F 51% 30.21 in 10.0 mi Calm Calm - N/A   Clear
10:15 PM 60.1 °F 36.1 °F 41% 30.21 in 10.0 mi North 3.5 mph - N/A   Clear
10:35 PM 60.4 °F 35.2 °F 39% 30.22 in 10.0 mi NNE 6.9 mph - N/A   Clear
10:55 PM 60.8 °F 34.2 °F 37% 30.22 in 10.0 mi North 9.2 mph - N/A   Clear
11:15 PM 60.6 °F 33.6 °F 36% 30.22 in 10.0 mi North 5.8 mph - N/A   Clear
11:35 PM 57.6 °F 36.7 °F 46% 30.24 in 10.0 mi Calm Calm - N/A   Clear
11:55 PM 54.9 °F 37.6 °F 52% 30.24 in 10.0 mi Calm Calm - N/A   Clear